Terug naar catalogus

SL-16 DEB *

ActiefLEO
NORAD 42255·DEBRIS·🇷🇺 Russia

Gelanceerd Mar 26, 1993 vanaf Baikonur Cosmodrome

Loading…

Volgende Passages (komende 24 uur)

TLE

VersSource: Space-Track

Epoch: Sep 14, 2026, 08:36 UTC

1 42255U 93016DK  26257.35894810  .00000693  00000-0  32772-3 0  9999
2 42255  71.0058 105.7910 0010587 332.9914 202.7726 14.23223502663720

Volg SL-16 DEB * in realtime met AllMySat

Download on the App Store